Weather History for Boonville, MO

Change the Weather History Date:

Sunday, May 18, 2014

  Actual Average Record
Temperature  
Mean Temperature 56 °F -  
Max Temperature 89 °F 76 °F 90 °F (2013)
Min Temperature 41 °F 55 °F 41 °F (2014)
Degree Days  
Heating Degree Days 9    
Growing Degree Days 6 (Base 50)    
Moisture  
Dew Point 41 °F    
Average Humidity 58    
Maximum Humidity 93    
Minimum Humidity 32    
Precipitation  
Precipitation 0.00 in - - ()
Sea Level Pressure  
Sea Level Pressure 30.17 in    
Wind  
Wind Speed 5 mph (SE)    
Max Wind Speed 14 mph    
Max Gust Speed 17 mph    
Visibility 10 miles    
Events      
Averages and records for this station are not official NWS values.
T = Trace of Precipitation, MM = Missing Value Source: NWS Daily Summary

Daily Weather History Graph

Daily Weather History Graph

Search for Another Location

Airport:

Trip Planner

Search our weather history database for the weather conditions in past years. The results will help you decide how hot, cold, wet, or windy it might be!

Date:

Astronomy

May. 18, 2014 Rise Set
Actual Time 5:55 AM CDT 8:19 PM CDT
Civil Twilight 5:25 AM CDT 8:49 PM CDT
Nautical Twilight 4:47 AM CDT 9:27 PM CDT
Astronomical Twilight 4:06 AM CDT 10:08 PM CDT
Moon No Moon Rise 9:44 AM CDT (5/18)
Length of Visible Light 15h 24m
Length of Day
14h 23m
Waning Gibbous, 81% of the Moon is Illuminated
May 18
Waning Gibbous
May 21
Last Quarter
May 28
New
Jun 5
First Quarter
Jun 12
Full

Hourly Weather History & Observations

Time (CDT) Temp. Windchill Dew Point Humidity Pressure Visibility Wind Dir Wind Speed Gust Speed Precip Events Conditions
12:15 AM 47.3 °F - 37.9 °F 70% 30.20 in 10.0 mi Calm Calm - N/A   Clear
12:35 AM 48.0 °F - 38.3 °F 69% 30.20 in 10.0 mi Calm Calm - N/A   Clear
12:55 AM 46.4 °F - 39.2 °F 76% 30.20 in 10.0 mi Calm Calm - N/A   Clear
1:15 AM 44.2 °F - 39.6 °F 84% 30.20 in 10.0 mi Calm Calm - N/A   Clear
1:35 AM 43.7 °F - 41.2 °F 91% 30.20 in 10.0 mi Calm Calm - N/A   Clear
1:55 AM 43.7 °F 39.7 °F 40.6 °F 89% 30.20 in 10.0 mi SE 6.9 mph - N/A   Clear
2:15 AM 43.2 °F 40.5 °F 41.2 °F 93% 30.20 in 10.0 mi SE 4.6 mph - N/A   Clear
2:35 AM 43.5 °F 40.9 °F 40.3 °F 88% 30.20 in 10.0 mi SE 4.6 mph - N/A   Clear
2:55 AM 43.7 °F 41.1 °F 38.8 °F 83% 30.20 in 10.0 mi SE 4.6 mph - N/A   Clear
3:15 AM 43.7 °F 41.1 °F 37.8 °F 80% 30.20 in 10.0 mi SE 4.6 mph - N/A   Clear
3:35 AM 43.5 °F 40.9 °F 37.6 °F 80% 30.19 in 10.0 mi SE 4.6 mph - N/A   Clear
3:55 AM 43.0 °F 41.3 °F 37.8 °F 82% 30.20 in 10.0 mi SE 3.5 mph - N/A   Clear
4:15 AM 42.1 °F 38.4 °F 37.9 °F 85% 30.20 in 10.0 mi SE 5.8 mph - N/A   Clear
4:35 AM 41.9 °F 40.0 °F 38.1 °F 86% 30.20 in 10.0 mi SE 3.5 mph - N/A   Clear
4:55 AM 41.5 °F - 38.8 °F 90% 30.21 in 10.0 mi Calm Calm - N/A   Clear
5:15 AM 41.9 °F - 39.6 °F 91% 30.20 in 10.0 mi Calm Calm - N/A   Clear
5:35 AM 42.3 °F - 39.0 °F 88% 30.21 in 10.0 mi Calm Calm - N/A   Clear
5:55 AM 41.5 °F 39.6 °F 39.0 °F 91% 30.21 in 10.0 mi ESE 3.5 mph - N/A   Clear
6:15 AM 41.4 °F 39.4 °F 39.4 °F 93% 30.22 in 10.0 mi SE 3.5 mph - N/A   Clear
6:35 AM 42.1 °F 40.2 °F 39.9 °F 92% 30.22 in 10.0 mi SE 3.5 mph - N/A   Clear
6:55 AM 43.7 °F 41.1 °F 41.2 °F 91% 30.23 in 10.0 mi SE 4.6 mph - N/A   Clear
7:15 AM 45.9 °F 43.6 °F 42.4 °F 88% 30.23 in 10.0 mi SE 4.6 mph - N/A   Clear
7:35 AM 47.8 °F - 42.8 °F 83% 30.23 in 10.0 mi SSE 4.6 mph - N/A   Clear
7:55 AM 50.4 °F - 43.9 °F 78% 30.23 in 10.0 mi South 5.8 mph - N/A   Clear
8:15 AM 53.1 °F - 45.0 °F 74% 30.24 in 10.0 mi South 6.9 mph - N/A   Clear
8:35 AM 55.4 °F - 43.0 °F 63% 30.24 in 10.0 mi South 9.2 mph - N/A   Clear
8:55 AM 57.2 °F - 41.7 °F 56% 30.24 in 10.0 mi SSE 13.8 mph - N/A   Clear
9:15 AM 58.5 °F - 41.2 °F 53% 30.24 in 10.0 mi South 10.4 mph 16.1 mph N/A   Clear
9:35 AM 59.9 °F - 41.9 °F 51% 30.24 in 10.0 mi SSE 12.7 mph - N/A   Clear
9:55 AM 60.6 °F - 41.9 °F 50% 30.24 in 10.0 mi SE 9.2 mph - N/A   Clear
10:15 AM 61.9 °F - 41.7 °F 48% 30.24 in 10.0 mi SSE 8.1 mph - N/A   Clear
10:35 AM 63.0 °F - 42.6 °F 47% 30.23 in 10.0 mi South 8.1 mph - N/A   Clear
10:55 AM 64.0 °F - 42.8 °F 46% 30.23 in 10.0 mi SSE 11.5 mph - N/A   Clear
11:15 AM 64.8 °F - 43.2 °F 45% 30.23 in 10.0 mi SSE 10.4 mph 16.1 mph N/A   Clear
11:35 AM 65.8 °F - 43.7 °F 45% 30.23 in 10.0 mi South 8.1 mph - N/A   Clear
11:55 AM 66.0 °F - 43.0 °F 43% 30.22 in 10.0 mi South 8.1 mph 16.1 mph N/A   Scattered Clouds
12:15 PM 65.7 °F - 41.0 °F 41% 30.21 in 10.0 mi South 10.4 mph - N/A   Mostly Cloudy
12:35 PM 65.8 °F - 41.9 °F 42% 30.20 in 10.0 mi SE 10.4 mph - N/A   Mostly Cloudy
12:55 PM 66.9 °F - 42.3 °F 41% 30.19 in 10.0 mi ESE 12.7 mph 16.1 mph N/A   Mostly Cloudy
1:15 PM 67.1 °F - 41.0 °F 39% 30.19 in 10.0 mi SE 10.4 mph - N/A   Scattered Clouds
1:35 PM 67.6 °F - 42.1 °F 39% 30.18 in 10.0 mi SSE 10.4 mph - N/A   Scattered Clouds
1:55 PM 68.5 °F - 41.5 °F 37% 30.17 in 10.0 mi SSE 11.5 mph 17.3 mph N/A   Scattered Clouds
2:15 PM 69.1 °F - 40.5 °F 35% 30.16 in 10.0 mi SSE 9.2 mph - N/A   Clear
2:35 PM 69.4 °F - 40.5 °F 35% 30.16 in 10.0 mi SE 6.9 mph - N/A   Clear
2:55 PM 69.4 °F - 40.3 °F 35% 30.15 in 10.0 mi SE 11.5 mph 16.1 mph N/A   Clear
3:15 PM 70.2 °F - 41.4 °F 35% 30.15 in 10.0 mi SE 8.1 mph - N/A   Clear
3:35 PM 70.0 °F - 40.1 °F 34% 30.14 in 10.0 mi South 6.9 mph - N/A   Clear
3:55 PM 70.7 °F - 40.5 °F 33% 30.13 in 10.0 mi SSE 9.2 mph - N/A   Clear
4:15 PM 71.1 °F - 40.5 °F 33% 30.13 in 10.0 mi SSE 6.9 mph 16.1 mph N/A   Clear
4:35 PM 71.1 °F - 39.9 °F 32% 30.12 in 10.0 mi SE 6.9 mph - N/A   Clear
4:55 PM 71.2 °F - 39.9 °F 32% 30.12 in 10.0 mi SSE 9.2 mph - N/A   Clear
5:15 PM 70.7 °F - 39.2 °F 32% 30.11 in 10.0 mi SE 9.2 mph - N/A   Clear
5:35 PM 70.7 °F - 39.6 °F 32% 30.11 in 10.0 mi SE 8.1 mph - N/A   Clear
5:55 PM 70.7 °F - 39.6 °F 32% 30.10 in 10.0 mi SSE 11.5 mph 17.3 mph N/A   Clear
6:15 PM 70.2 °F - 39.0 °F 32% 30.09 in 10.0 mi SE 12.7 mph 17.3 mph N/A   Clear
6:35 PM 68.9 °F - 39.6 °F 34% 30.09 in 10.0 mi SE 8.1 mph - N/A   Clear
6:55 PM 68.0 °F - 40.1 °F 36% 30.08 in 10.0 mi SE 9.2 mph - N/A   Clear
7:15 PM 66.9 °F - 41.0 °F 39% 30.08 in 10.0 mi SE 6.9 mph - N/A   Clear
7:35 PM 65.7 °F - 41.4 °F 41% 30.07 in 10.0 mi ESE 6.9 mph - N/A   Clear
7:55 PM 64.8 °F - 41.0 °F 42% 30.07 in 10.0 mi ESE 6.9 mph - N/A   Clear
8:15 PM 63.5 °F - 41.0 °F 44% 30.07 in 10.0 mi ESE 5.8 mph - N/A   Clear
8:35 PM 62.1 °F - 41.0 °F 46% 30.08 in 10.0 mi ESE 5.8 mph - N/A   Clear
8:55 PM 60.8 °F - 41.4 °F 49% 30.08 in 10.0 mi ESE 5.8 mph - N/A   Scattered Clouds
9:15 PM 60.3 °F - 41.7 °F 50% 30.08 in 10.0 mi ESE 5.8 mph - N/A   Mostly Cloudy
9:35 PM 59.5 °F - 42.1 °F 52% 30.08 in 10.0 mi ESE 6.9 mph - N/A   Scattered Clouds
9:55 PM 59.2 °F - 41.5 °F 52% 30.08 in 10.0 mi ESE 6.9 mph - N/A   Clear
10:15 PM 59.0 °F - 41.5 °F 52% 30.08 in 10.0 mi SE 8.1 mph - N/A   Clear
10:35 PM 58.3 °F - 41.9 °F 54% 30.08 in 10.0 mi ESE 6.9 mph - N/A   Clear
10:55 PM 57.9 °F - 42.1 °F 56% 30.07 in 10.0 mi SE 4.6 mph - N/A   Clear
11:15 PM 57.0 °F - 42.3 °F 58% 30.07 in 10.0 mi ESE 6.9 mph - N/A   Clear
11:35 PM 56.8 °F - 42.4 °F 59% 30.07 in 10.0 mi SE 6.9 mph - N/A   Clear
11:55 PM 56.3 °F - 42.8 °F 61% 30.07 in 10.0 mi ESE 6.9 mph - N/A   Clear